| time (UTC) | temp F | wind direction | speed MPH | gust MPH | rain 1hr in | rain 24hr in | rain mn in | humidity % | barometer mb |
| 20260831210933 | 102 | 175 | 4.0 | 7.0 | 0.00 | 0.00 | 0.00 | ||
| 20260831200933 | 101 | 61 | 5.0 | 7.0 | 0.00 | 0.00 | 0.00 | ||
| 20260831193433 | 103 | 111 | 3.0 | 8.0 | 0.00 | 0.00 | 0.00 | ||
| 20260831183933 | 98 | 184 | 2.0 | 3.0 | 0.00 | 0.00 | 0.00 | ||
| 20260831180433 | 101 | 242 | 7.0 | 4.0 | 0.00 | 0.00 | 0.00 | ||
| 20260831175933 | 102 | 241 | 2.0 | 1.0 | 0.00 | 0.00 | 0.00 | ||
| 20260831175433 | 101 | 225 | 2.0 | 4.0 | 0.00 | 0.00 | 0.00 | ||
| 20260831173933 | 102 | 79 | 3.0 | 4.0 | 0.00 | 0.00 | 0.00 | ||
| 20260831172433 | 100 | 141 | 4.0 | 2.0 | 0.00 | 0.00 | 0.00 | ||
| 20260831171936 | 100 | 69 | 3.0 | 3.0 | 0.00 | 0.00 | 0.00 | ||
| 20260831170933 | 100 | 163 | 3.0 | 3.0 | 0.00 | 0.00 | 0.00 | ||
| 20260831170433 | 98 | 34 | 3.0 | 2.0 | 0.00 | 0.00 | 0.00 | ||
| 20260831165933 | 99 | 229 | 4.0 | 5.0 | 0.00 | 0.00 | 0.00 | ||
| 20260831165434 | 100 | 110 | 2.0 | 2.0 | 0.00 | 0.00 | 0.00 | ||
| 20260831115545 | 79 | 139 | 0.0 | 0.0 | 0.00 | 0.00 | 0.00 | ||
| 20260831115435 | 79 | 139 | 0.0 | 0.0 | 0.00 | 0.00 | 0.00 | ||
| 20260831103435 | 80 | 227 | 0.0 | 0.0 | 0.00 | 0.00 | 0.00 | ||
| 20260831100435 | 81 | 224 | 1.0 | 1.0 | 0.00 | 0.00 | 0.00 | ||
| 20260831090435 | 82 | 63 | 0.0 | 0.0 | 0.00 | 0.00 | 0.00 | ||
| 20260831085435 | 83 | 214 | 0.0 | 2.0 | 0.00 | 0.00 | 0.00 | ||
| 20260831080435 | 84 | 260 | 1.0 | 2.0 | 0.00 | 0.00 | 0.00 | ||
| 20260831075935 | 84 | 104 | 1.0 | 1.0 | 0.00 | 0.00 | 0.00 | ||
| 20260831075436 | 84 | 231 | 2.0 | 3.0 | 0.00 | 0.00 | 0.00 | ||
| 20260831074936 | 84 | 191 | 2.0 | 6.0 | 0.00 | 0.00 | 0.00 | ||
| 20260831074435 | 84 | 124 | 1.0 | 0.0 | 0.00 | 0.00 | 0.00 | ||
| 20260831073935 | 85 | 224 | 4.0 | 5.0 | 0.00 | 0.00 | 0.00 | ||
| 20260831073435 | 85 | 184 | 4.0 | 1.0 | 0.00 | 0.00 | 0.00 | ||
| 20260831072935 | 85 | 241 | 3.0 | 4.0 | 0.00 | 0.00 | 0.00 | ||
| 20260831072435 | 85 | 291 | 4.0 | 2.0 | 0.00 | 0.00 | 0.00 | ||
| 20260831071936 | 85 | 207 | 2.0 | 6.0 | 0.00 | 0.00 | 0.00 | ||
| 20260831071435 | 86 | 217 | 4.0 | 4.0 | 0.00 | 0.00 | 0.00 | ||
| 20260831070935 | 85 | 269 | 4.0 | 4.0 | 0.00 | 0.00 | 0.00 | ||
| 20260831070436 | 85 | 238 | 4.0 | 1.0 | 0.00 | 0.00 | 0.00 | ||
| 20260831065935 | 85 | 213 | 2.0 | 1.0 | 0.00 | 0.00 | 0.00 | ||
| 20260831061436 | 84 | 196 | 0.0 | 0.0 | 0.00 | 0.00 | 0.00 | ||
| 20260831060936 | 84 | 196 | 0.0 | 0.0 | 0.00 | 0.00 | 0.00 | ||
| 20260831060436 | 85 | 196 | 0.0 | 0.0 | 0.00 | 0.00 | 0.00 | ||
| 20260831054436 | 84 | 163 | 0.0 | 0.0 | 0.00 | 0.00 | 0.00 | ||
| 20260831053436 | 84 | 163 | 0.0 | 0.0 | 0.00 | 0.00 | 0.00 | ||
| 20260831052936 | 84 | 163 | 0.0 | 0.0 | 0.00 | 0.00 | 0.00 | ||
| 20260831050436 | 85 | 163 | 0.0 | 0.0 | 0.00 | 0.00 | 0.00 | ||
| 20260831045936 | 86 | 163 | 0.0 | 0.0 | 0.00 | 0.00 | 0.00 | ||
| 20260831041436 | 86 | 163 | 0.0 | 0.0 | 0.00 | 0.00 | 0.00 | ||
| 20260831021437 | 91 | 163 | 0.0 | 0.0 | 0.00 | 0.00 | 0.00 | ||
| 20260831015437 | 92 | 163 | 0.0 | 0.0 | 0.00 | 0.00 | 0.00 | ||
| 20260831011937 | 93 | 163 | 0.0 | 0.0 | 0.00 | 0.00 | 0.00 | ||
| 20260831010937 | 94 | 163 | 0.0 | 0.0 | 0.00 | 0.00 | 0.00 | ||
| 20260831005937 | 95 | 31 | 0.0 | 3.0 | 0.00 | 0.00 | 0.00 | ||
| 20260831005437 | 95 | 15 | 2.0 | 2.0 | 0.00 | 0.00 | 0.00 | ||
| 20260831004939 | 96 | 225 | 2.0 | 6.0 | 0.00 | 0.00 | 0.00 |